Regional Weather Roundup
Issued by NWS

Home | Current Version | Previous Version | Graphics & Text | Print | Product List | Glossary On
Versions: 1 2 3 4 5 6 7 8 9 10 11 12 13 14 15 16 17 18 19 20 21 22 23 24 25 26 27 28 29 30 31 32 33 34 35 36 37 38 39 40 41 42 43 44 45 46 47 48 49 50
000
ASUS43 KOAX 210510
RWRNE

WEATHER ROUNDUP FOR NEBRASKA
NATIONAL WEATHER SERVICE OMAHA NE
1200 AM CDT TUE OCT 21 2014

NOTES: SATELLITE DATA IS BEING USED TO AUGMENT CLOUD COVER ABOVE
       12000 FEET.
       "FAIR" INDICATES FEW OR NO CLOUDS BELOW 12,000 FEET WITH NO
       SIGNIFICANT WEATHER AND/OR OBSTRUCTIONS TO VISIBILITY.

  * THESE STATIONS DO NOT REPORT WEATHER SUCH AS RAIN...SNOW OR FOG.

NEZ001>004-019>022-054>056-210600-
NEBRASKA PANHANDLE

CITY           SKY/WX    TMP DP  RH WIND       PRES   REMARKS
SCOTTSBLUFF    CLEAR     62  38  40 SE8       30.00F
ALLIANCE       CLEAR     46  38  73 S10       30.01S
CHADRON        LGT RAIN  64  38  38 S17       29.92F
KIMBALL        CLEAR     53  38  56 S12       30.05S
SIDNEY         CLEAR     51  40  65 S10       30.07S
$$

NEZ057>060-069>072-079>082-210600-
SOUTHWEST NEBRASKA

CITY           SKY/WX    TMP DP  RH WIND       PRES   REMARKS
NORTH PLATTE   CLEAR     55  39  54 S8        30.05S
IMPERIAL       CLEAR     56  37  49 S10       30.07S
LEXINGTON      CLEAR     53  41  65 SE6       30.06F
MCCOOK         CLEAR     55  40  56 S7        30.06F
OGALLALA       CLEAR     55  40  57 W5        30.06S
$$

NEZ005>010-023>029-035>040-094-210600-
NORTH CENTRAL NEBRASKA

CITY           SKY/WX    TMP DP  RH WIND       PRES   REMARKS
VALENTINE      CLEAR     59  39  47 SW13      29.98F
AINSWORTH      CLEAR     55  41  60 S12       30.01S
BROKEN BOW     CLEAR     42  38  85 CALM      30.05S
O`NEILL        CLEAR     52  42  70 S6        30.04S
ORD            CLEAR     43  38  82 CALM      30.04S
THEDFORD       CLEAR     59  40  49 S9        30.03S
$$

NEZ041-046>049-061>064-073>077-083>087-210600-
SOUTH CENTRAL NEBRASKA

CITY           SKY/WX    TMP DP  RH WIND       PRES   REMARKS
GRAND ISLAND   CLEAR     52  39  61 S8        30.07S
AURORA           N/A     51  37  59 SE6       30.06F HAZE
HASTINGS       CLEAR     54  39  57 S3        30.07S
HEBRON         CLEAR     44  40  86 CALM      30.07F
HOLDREGE       CLEAR     55  41  59 CALM      30.07S
KEARNEY *      CLEAR     46  37  71 SE3       30.07S
YORK           CLEAR     55  37  50 S6        30.07S
$$

NEZ011>018-030>034-042>045-210600-
NORTHEAST NEBRASKA

CITY           SKY/WX    TMP DP  RH WIND       PRES   REMARKS
NORFOLK        CLEAR     44  36  73 CALM      30.05F
ALBION         CLEAR     42  36  81 CALM      30.06S
BLAIR          CLEAR     56  38  51 CALM      30.06F
COLUMBUS *     CLEAR     45  36  70 CALM      30.07S
FREMONT        CLEAR     46  42  84 CALM      30.06F
TEKAMAH        CLEAR     43  38  82 CALM      30.07S
WAYNE          CLEAR     38  35  86 CALM      30.07F
$$

NEZ050>053-065>068-078-088>093-210600-
SOUTHEAST NEBRASKA

CITY           SKY/WX    TMP DP  RH WIND       PRES   REMARKS
LINCOLN        CLEAR     43  37  79 CALM      30.08F
OMAHA EPPLEY   CLEAR     47  43  86 CALM      30.07F
BEATRICE       CLEAR     43  38  80 CALM      30.08S
FALLS CITY     CLEAR     45  39  79 CALM      30.06F
NEBRASKA CITY  CLEAR     57  32  38 S3        30.07F
PLATTSMOUTH    CLEAR     50  37  62 CALM      30.07S
$$

NEZ044-045-051>053-067-210600-
OMAHA AREA

CITY           SKY/WX    TMP DP  RH WIND       PRES   REMARKS
OMAHA EPPLEY   CLEAR     47  43  86 CALM      30.07F
BLAIR          CLEAR     56  38  51 CALM      30.06F
FREMONT        CLEAR     46  42  84 CALM      30.06F
MILLARD        CLEAR     46  44  94 CALM      30.06F
OFFUTT AFB     CLEAR     41  41 100 CALM      30.06F
PLATTSMOUTH    CLEAR     50  37  62 CALM      30.07S
WAHOO          FAIR      46  38  75 CALM      30.06F
$$


USA.gov is the U.S. government's official web portal to all federal, state and local government web resources and services.